[[{"header":{"parameterUnit":"m.s-1","parameterCategory":1,"la1":30.2992,"la2":30.254,"lo1":-89.0895,"lo2":-89.0443,"dy":0.0025,"dx":0.0025,"nx":19,"ny":19,"refTime":"2026-04-30T03:00:00:Z","depth":0,"parameterNumber":2,"parameterNumberName":"U-component_of_WINDS"},"data":[0,0,0,-3.8178,-3.8178,-3.8149,-3.8149,-3.8142,-3.8142,0,0,0,0,0,0,0,0,0,0,0,-3.8205,-3.8206,-3.8178,-3.8178,-3.8149,-3.8149,-3.8142,-3.8142,0,0,0,0,0,0,0,0,0,0,0,-3.8205,-3.8205,-3.8206,-3.8178,-3.8149,-3.8149,-3.8141,-3.8153,0,0,0,0,0,0,0,0,0,0,-3.8176,-3.8218,-3.8205,-3.8206,-3.8178,-3.8149,-3.8149,-3.8153,-3.8152,-3.8168,0,-3.8186,0,-3.8164,-3.8143,-3.8143,0,0,0,-3.8165,-3.8219,-3.8195,-3.8206,-3.8178,-3.8149,-3.8158,-3.8152,-3.8151,-3.8167,-3.8185,-3.8184,-3.8164,-3.8143,-3.8143,-3.8275,-3.8276,0,0,-3.8167,-3.821,-3.8195,-3.8195,-3.8201,-3.8159,-3.8158,-3.8151,-3.8175,-3.8185,-3.8184,-3.8164,-3.8143,-3.8144,-3.8274,-3.8275,0,0,0,-3.818,-3.8212,-3.8186,-3.8196,-3.8189,-3.8159,-3.8157,-3.8175,-3.8163,-3.8183,-3.8163,-3.8144,-3.8144,-3.8273,-3.8274,-3.8378,0,0,0,-3.8181,-3.8219,-3.8188,-3.8214,-3.8189,-3.8181,-3.8181,-3.8163,-3.8161,-3.8164,-3.8144,-3.8144,-3.8271,-3.8274,-3.8372,-3.8421,0,0,0,-3.8201,-3.8221,-3.8223,-3.8217,-3.8205,-3.818,-3.8168,-3.8162,-3.815,-3.8143,-3.8144,-3.827,-3.8273,-3.8367,-3.8412,-3.8469,0,0,0,-3.8235,-3.8316,-3.8226,-3.8307,-3.8206,-3.8244,-3.8167,-3.8193,-3.82,-3.8144,-3.8271,-3.8274,-3.8365,-3.8406,-3.8464,-3.8526,-3.8555,0,0,-3.8361,-3.8333,-3.8377,-3.8295,-3.8361,-3.8245,-3.8325,-3.829,-3.825,-3.8269,-3.8272,-3.8374,-3.8411,-3.8468,-3.8702,-3.8726,0,0,0,-3.8432,-3.8465,-3.8472,-3.848,-3.8455,-3.8438,-3.8386,-3.8373,-3.8386,-3.8269,-3.8407,-3.8428,-3.846,-3.8488,-3.8508,-3.8533,-3.8288,-3.8288,-3.8288,-3.8674,-3.8617,-3.8687,-3.8628,-3.8636,-3.8581,-3.8583,-3.8556,-3.8497,-3.8531,-3.8537,-3.8686,-3.872,-3.8735,-3.8762,-3.8563,-3.8564,-3.8564,-3.8564,-3.8854,-3.8893,-3.8811,-3.885,-3.879,-3.8823,-3.8772,-3.873,-3.8752,-3.8677,-3.8702,-3.8627,-3.8763,-3.8783,-3.8572,-3.857,-3.857,-3.8569,-3.8568,-3.9008,-3.9017,-3.8998,-3.9003,-3.9013,-3.8949,-3.8974,-3.8917,-3.8865,-3.8889,-3.889,-3.8889,-3.8881,-3.8893,-3.8894,-3.8894,-3.8895,-3.8895,-3.8895,-3.9177,-3.9152,-3.918,-3.9159,-3.9156,-3.9145,-3.9089,-3.9085,-3.9067,-3.9024,-3.9024,-3.8963,-3.8786,-3.8744,-3.8903,-3.8902,-3.8901,-3.89,-3.89,-3.9385,-3.9328,-3.9372,-3.9369,-3.9339,-3.9353,-3.9279,-3.9276,-3.9264,-3.9278,-3.921,-3.9088,-3.9056,-3.9039,-3.9004,-3.9221,-3.9221,-3.9221,-3.9221,-3.9517,-3.9494,-3.9525,-3.9524,-3.9516,-3.9454,-3.9505,-3.9462,-3.9409,-3.9398,-3.9358,-3.9306,-3.9292,-3.9267,-3.9246,-3.9213,-3.9478,-3.9478,-3.9478,-3.9643,-3.9616,-3.9671,-3.9617,-3.9589,-3.9566,-3.9612,-3.9615,-3.9543,-3.9488,-3.9389,-3.9378,-3.9293,-3.9268,-3.9215,-3.9182,-3.912,0,0]},{"header":{"parameterUnit":"m.s-1","parameterCategory":1,"la1":30.2992,"la2":30.254,"lo1":-89.0895,"lo2":-89.0443,"dy":0.0025,"dx":0.0025,"nx":19,"ny":19,"refTime":"2026-04-30T03:00:00:Z","depth":0,"parameterNumber":3,"parameterNumberName":"V-component_of_WINDS"},"data":[0,0,0,-0.3375,-0.3375,-0.3359,-0.3359,-0.3356,-0.3356,0,0,0,0,0,0,0,0,0,0,0,-0.339,-0.339,-0.3375,-0.3375,-0.3359,-0.3359,-0.3356,-0.3356,0,0,0,0,0,0,0,0,0,0,0,-0.3389,-0.339,-0.339,-0.3375,-0.336,-0.3359,-0.3356,-0.3362,0,0,0,0,0,0,0,0,0,0,-0.3374,-0.3397,-0.339,-0.339,-0.3375,-0.336,-0.3359,-0.3362,-0.3362,-0.337,0,-0.338,0,-0.3368,-0.3357,-0.3357,0,0,0,-0.3368,-0.3397,-0.3384,-0.339,-0.3375,-0.336,-0.3365,-0.3362,-0.3361,-0.337,-0.338,-0.3379,-0.3368,-0.3357,-0.3357,-0.3429,-0.343,0,0,-0.3369,-0.3392,-0.3385,-0.3384,-0.3387,-0.3365,-0.3364,-0.3361,-0.3374,-0.338,-0.3379,-0.3368,-0.3357,-0.3357,-0.3429,-0.343,0,0,0,-0.3376,-0.3393,-0.338,-0.3385,-0.3381,-0.3365,-0.3364,-0.3374,-0.3367,-0.3378,-0.3368,-0.3357,-0.3357,-0.3428,-0.3429,-0.3487,0,0,0,-0.3376,-0.3397,-0.338,-0.3395,-0.3381,-0.3377,-0.3377,-0.3368,-0.3366,-0.3368,-0.3357,-0.3357,-0.3427,-0.3429,-0.3483,-0.3511,0,0,0,-0.3387,-0.3398,-0.3399,-0.3396,-0.339,-0.3377,-0.337,-0.3367,-0.336,-0.3357,-0.3357,-0.3427,-0.3428,-0.3481,-0.3506,-0.3539,0,0,0,-0.3406,-0.345,-0.3401,-0.3445,-0.339,-0.3411,-0.3369,-0.3384,-0.3388,-0.3357,-0.3427,-0.3429,-0.348,-0.3503,-0.3536,-0.3573,-0.359,0,0,-0.3475,-0.3459,-0.3483,-0.3439,-0.3475,-0.3412,-0.3456,-0.3437,-0.3415,-0.3426,-0.3428,-0.3485,-0.3506,-0.3538,-0.367,-0.3683,0,0,0,-0.3513,-0.3532,-0.3536,-0.354,-0.3527,-0.3518,-0.349,-0.3483,-0.3491,-0.3426,-0.3503,-0.3515,-0.3533,-0.355,-0.3561,-0.3577,-0.3437,-0.3437,-0.3436,-0.3646,-0.3615,-0.3654,-0.3622,-0.3627,-0.3597,-0.3599,-0.3584,-0.3552,-0.357,-0.3575,-0.3658,-0.3678,-0.3687,-0.3703,-0.3589,-0.3589,-0.3589,-0.3589,-0.3746,-0.3769,-0.3723,-0.3746,-0.3713,-0.3732,-0.3704,-0.3681,-0.3694,-0.3652,-0.3667,-0.3627,-0.3703,-0.3716,-0.3593,-0.3593,-0.3592,-0.3592,-0.3591,-0.3833,-0.3838,-0.3828,-0.3832,-0.3838,-0.3803,-0.3818,-0.3787,-0.3758,-0.3772,-0.3774,-0.3773,-0.3771,-0.3774,-0.3775,-0.3775,-0.3775,-0.3775,-0.3776,-0.3928,-0.3914,-0.3931,-0.392,-0.3919,-0.3914,-0.3884,-0.3882,-0.3873,-0.3849,-0.3849,-0.3817,-0.3714,-0.3691,-0.378,-0.3779,-0.3779,-0.3778,-0.3778,-0.4047,-0.4015,-0.4041,-0.404,-0.4025,-0.4034,-0.3993,-0.3993,-0.3987,-0.3996,-0.3958,-0.3887,-0.3869,-0.386,-0.3841,-0.3963,-0.3963,-0.3963,-0.3963,-0.4123,-0.411,-0.413,-0.4131,-0.4128,-0.4093,-0.4125,-0.4102,-0.4073,-0.4067,-0.4044,-0.4015,-0.4006,-0.3994,-0.3982,-0.3964,-0.4114,-0.4114,-0.4115,-0.4196,-0.4181,-0.4215,-0.4185,-0.417,-0.4159,-0.4188,-0.4192,-0.4152,-0.412,-0.4063,-0.4057,-0.4009,-0.3995,-0.3966,-0.3947,-0.3914,0,0]}]]